Hourly Data Report for October 04, 2013

All times are specified in Local Standard Time (LST). Add 1 hour to adjust for Daylight Saving Time where and when it is observed.

SAINT JOHN A
NEW BRUNSWICK

45°18'58.000" N
65°53'24.000" W
108.80 m
8104901
71609
YSJ

Download Data

Hourly Data (October 2013)
Hourly Data Report for October 4, 2013
Temp Definition
°C
Dew Point Temp Definition
°C
Rel Hum Definition
%
Wind Dir Definition
10's deg

Wind Spd Definition
km/h
Visibility Definition
km
Stn Press Definition
kPa
Hmdx Definition


Wind Chill Definition


Weather Definition


TIME
00:00 Legend Double Dagger 7.0 6.0 93 1 2 24.1 100.24     LegendNANA
01:00 Legend Double Dagger 7.8 6.3 90 21 1 24.1 100.22     LegendNANA
02:00 Legend Double Dagger 9.8 6.4 79 23 4 24.1 100.21     Mostly Cloudy
03:00 Legend Double Dagger 7.8 5.5 85 24 5 24.1 100.19     LegendNANA
04:00 Legend Double Dagger 7.6 5.6 87 25 8 24.1 100.17     LegendNANA
05:00 Legend Double Dagger 9.4 6.0 79 26 9 24.1 100.21     Clear
06:00 Legend Double Dagger 11.1 5.7 69 28 16 24.1 100.23     LegendNANA
07:00 Legend Double Dagger 10.9 6.1 72 31 11 24.1 100.29     LegendNANA
08:00 Legend Double Dagger 13.0 7.1 67 32 17 24.1 100.32     Mostly Cloudy
09:00 Legend Double Dagger 14.6 5.7 55 32 36 24.1 100.30     LegendNANA
10:00 Legend Double Dagger 15.4 4.2 47 32 36 24.1 100.25     LegendNANA
11:00 Legend Double Dagger 16.5 0.7 34 32 28 24.1 100.23     Mainly Clear
12:00 Legend Double Dagger 17.0 1.1 34 34 29 24.1 100.25     LegendNANA
13:00 Legend Double Dagger 17.8 -1.3 27 29 22 24.1 100.20     LegendNANA
14:00 Legend Double Dagger 18.6 -1.7 25 30 32 24.1 100.16     Mostly Cloudy
15:00 Legend Double Dagger 17.2 -1.4 28 33 30 24.1 100.18     LegendNANA
16:00 Legend Double Dagger 16.5 -0.2 32 33 32 24.1 100.18     LegendNANA
17:00 Legend Double Dagger 15.0 0.1 36 32 20 24.1 100.26     Mostly Cloudy
18:00 Legend Double Dagger 11.7 1.7 50 31 13 24.1 100.30     LegendNANA
19:00 Legend Double Dagger 11.0 1.8 53 34 17 24.1 100.35     LegendNANA
20:00 Legend Double Dagger 9.5 2.2 60 31 7 24.1 100.39     Mainly Clear
21:00 Legend Double Dagger 7.2 2.9 74 23 1 24.1 100.44     LegendNANA
22:00 Legend Double Dagger 5.7 2.4 79 35 11 24.1 100.48     LegendNANA
23:00 Legend Double Dagger 5.3 3.0 85 15 2 24.1 100.46     Clear

Notes on Data Quality.

Legend

  • E = Estimated
  • M = Missing
  • NA = Not Available
  • ‡ = Partner data that is not subject to review by the National Climate Archives
Date modified: